Flag for Uruguay Weather past 2 weeks in Melo, Uruguay

Now
59 °F

Fog.


Feels Like: 58 °F
Forecast: 57 / 80 °F
Wind: 8 mph from Northeast

Location: Pelotas Airport

Current Time: Aug 20, 2014 at 11:27:38 PM

Latest Report: Aug 20, 2014 at 11:00 PM


Visibility: 2 mi

Pressure: 30.09 "Hg

Humidity: 94%

Dew point: 57 °F

Location of MeloLocation

Historic Weather in Melo — Graph

°F

Melo temperature yesterday

Maximum temperature yesterday: 75 °F (at 4:00 PM)
Minimum temperature yesterday: 54 °F (at 10:00 PM)
Average temperature yesterday: 61 °F

Past Weeks' High & Low Weather Summary

 TemperatureHumidityPressure
High75 °F (Aug 19, 4:00 PM)100% (Aug 7, 8:00 AM)30.42 "Hg (Aug 7, 8:00 AM)
Low34 °F (Aug 14, 6:00 AM)33% (Aug 13, 3:00 PM)29.86 "Hg (Aug 7, 3:00 AM)
Average55 °F83%30.19 "Hg
* Reported Aug 5 10:00 PM — Aug 20 10:00 PM, Melo, Weather by CustomWeather, © 2014

Note: Actual official high and low records may vary slightly from our data, if they occured in-between our weather recording intervals... More about our weather records

Advertising

Melo weather history for previous 24 hours

 ConditionsComfort  
Time TempWeatherWind HumidityBarometerVisibility
10:00 PM
Aug 20
59 °FFog.12 mph100%30.12 "Hg1 mi
9:00 PM59 °FFog.12 mph100%30.12 "Hg0 mi
8:00 PM61 °FFog.9 mph94%30.12 "Hg2 mi
7:00 PM61 °FLow clouds.9 mph94%30.12 "Hg4 mi
6:00 PM61 °FLow clouds.8 mph100%30.09 "Hg4 mi
5:00 PM63 °FLow clouds.9 mph88%30.12 "Hg6 mi
4:00 PM63 °FLow clouds.8 mph88%30.12 "Hg6 mi
3:00 PM63 °FLow clouds.8 mph88%30.12 "Hg5 mi
2:00 PM61 °FLow clouds.6 mph94%30.15 "Hg5 mi
1:00 PM61 °FLow clouds.5 mph88%30.18 "Hg5 mi
12:00 PM61 °FLow clouds.8 mph88%30.21 "Hg4 mi
11:00 AM59 °FLow clouds.6 mph94%30.21 "Hg4 mi
10:00 AM57 °FLow clouds.10 mph100%30.21 "Hg4 mi
9:00 AM57 °FFog.9 mph100%30.21 "Hg3 mi
8:00 AM55 °FFog.3 mph100%30.21 "Hg0 mi
7:00 AM55 °FFog.3 mph100%30.18 "Hg0 mi
6:00 AM55 °FFog.3 mph100%30.18 "Hg1 mi
5:00 AM57 °FFog.5 mph100%30.15 "Hg1 mi
4:00 AM57 °FFog.5 mph100%30.15 "Hg1 mi
3:00 AM59 °FFog.3 mph100%30.15 "Hg1 mi
2:00 AM57 °FFog.3 mph100%30.18 "Hg0 mi
1:00 AM55 °FFog.3 mph100%30.18 "Hg0 mi
12:00 AM52 °FFog.1 mph100%30.18 "Hg0 mi
11:00 PM
Aug 19
54 °FFog.1 mph94%30.18 "Hg0 mi
Weather by CustomWeather, © 2014

See weather overviewHow to use our weather pages